• In Netherlands
  • List of Countries
  • For 7 days
  • Water Temperature
  • Satellite Maps
  • Weather Map
  • Weather Widgets
  • user-avatar
    Login

    Hourly Weather Dangriga

    Today, 24 November, Friday

    Time Temperature Precipitation Wind Pressure Humidity
    00:00 +21°C° 0 mm 6 mps 762 mmHg 86%
    01:00 +21°C° 0 mm 5 mps 761 mmHg 87%
    02:00 +21°C° 0 mm 5 mps 761 mmHg 88%
    03:00 +20°C° 0 mm 5 mps 761 mmHg 89%
    04:00 +20°C° 0 mm 4 mps 761 mmHg 91%
    05:00 +20°C° 0 mm 4 mps 761 mmHg 92%
    06:00 +20°C° 0 mm 4 mps 762 mmHg 94%
    07:00 +22°C° 0 mm 4 mps 762 mmHg 85%
    08:00 +24°C° 0 mm 3 mps 762 mmHg 76%
    09:00 +26°C° 0 mm 3 mps 763 mmHg 67%
    10:00 +28°C° 0 mm 3 mps 762 mmHg 60%
    11:00 +29°C° 0 mm 2 mps 762 mmHg 54%
    12:00 +31°C° 0 mm 2 mps 762 mmHg 48%
    13:00 +30°C° 0 mm 2 mps 761 mmHg 51%
    14:00 +29°C° 0 mm 2 mps 760 mmHg 55%
    15:00 +29°C° 0 mm 2 mps 760 mmHg 58%
    16:00 +27°C° 0 mm 1 mps 760 mmHg 66%
    17:00 +25°C° 0 mm 1 mps 760 mmHg 73%
    18:00 +24°C° 0 mm 1 mps 760 mmHg 81%
    19:00 +23°C° 0 mm 1 mps 761 mmHg 83%
    20:00 +23°C° 0 mm 1 mps 761 mmHg 86%
    21:00 +22°C° 0 mm 1 mps 762 mmHg 89%
    22:00 +22°C° 0 mm 1 mps 762 mmHg 90%
    23:00 +22°C° 0 mm 1 mps 762 mmHg 91%

    Tomorrow, 25 November, Saturday

    Time Temperature Precipitation Wind Pressure Humidity
    00:00 +22°C° 0 mm 1 mps 762 mmHg 92%
    01:00 +21°C° 0 mm 1 mps 761 mmHg 91%
    02:00 +20°C° 0 mm 2 mps 761 mmHg 91%
    03:00 +20°C° 0 mm 2 mps 761 mmHg 91%
    04:00 +20°C° 0 mm 2 mps 761 mmHg 91%
    05:00 +20°C° 0 mm 2 mps 761 mmHg 92%
    06:00 +19°C° 0 mm 2 mps 761 mmHg 92%
    07:00 +23°C° 0 mm 2 mps 762 mmHg 81%
    08:00 +26°C° 0 mm 2 mps 762 mmHg 71%
    09:00 +28°C° 0 mm 2 mps 762 mmHg 61%
    10:00 +29°C° 0 mm 2 mps 762 mmHg 57%
    11:00 +30°C° 0 mm 2 mps 762 mmHg 54%
    12:00 +31°C° 0 mm 2 mps 761 mmHg 50%
    13:00 +31°C° 0 mm 2 mps 761 mmHg 54%
    14:00 +30°C° 0 mm 2 mps 760 mmHg 57%
    15:00 +29°C° 0 mm 2 mps 759 mmHg 60%
    16:00 +28°C° 0 mm 2 mps 760 mmHg 69%
    17:00 +26°C° 0 mm 2 mps 760 mmHg 78%
    18:00 +24°C° 0 mm 2 mps 760 mmHg 87%
    19:00 +24°C° 0 mm 2 mps 761 mmHg 89%
    20:00 +23°C° 0 mm 2 mps 761 mmHg 92%
    21:00 +23°C° 0 mm 2 mps 762 mmHg 94%
    22:00 +23°C° 0 mm 2 mps 762 mmHg 95%
    23:00 +23°C° 0 mm 2 mps 762 mmHg 96%

    Day after tomorrow, 26 November, Sunday

    Time Temperature Precipitation Wind Pressure Humidity
    00:00 +22°C° 0 mm 1 mps 762 mmHg 96%
    01:00 +22°C° 0 mm 1 mps 761 mmHg 96%
    02:00 +22°C° 0 mm 1 mps 761 mmHg 97%
    03:00 +22°C° 0 mm 1 mps 761 mmHg 97%
    04:00 +22°C° 0 mm 1 mps 761 mmHg 97%
    05:00 +22°C° 0 mm 1 mps 761 mmHg 97%
    06:00 +22°C° 0 mm 1 mps 762 mmHg 97%
    07:00 +24°C° 0 mm 2 mps 762 mmHg 87%
    08:00 +26°C° 0 mm 2 mps 763 mmHg 78%
    09:00 +28°C° 0 mm 3 mps 764 mmHg 69%
    10:00 +29°C° 0.1 mm 3 mps 763 mmHg 62%
    11:00 +31°C° 0.1 mm 3 mps 763 mmHg 55%
    12:00 +33°C° 0.1 mm 3 mps 762 mmHg 49%
    13:00 +32°C° 0 mm 4 mps 762 mmHg 50%
    14:00 +32°C° 0 mm 4 mps 761 mmHg 52%
    15:00 +32°C° 0 mm 4 mps 760 mmHg 53%
    16:00 +28°C° 0.1 mm 4 mps 761 mmHg 63%
    17:00 +26°C° 0.1 mm 4 mps 761 mmHg 74%
    18:00 +23°C° 0.1 mm 4 mps 761 mmHg 84%
    19:00 +23°C° 0 mm 4 mps 762 mmHg 86%
    20:00 +22°C° 0 mm 4 mps 762 mmHg 87%
    21:00 +22°C° 0 mm 3 mps 763 mmHg 89%
    22:00 +21°C° 0 mm 3 mps 763 mmHg 89%
    23:00 +21°C° 0 mm 4 mps 763 mmHg 90%

    27 November, Monday

    Time Temperature Precipitation Wind Pressure Humidity
    00:00 +21°C° 0 mm 4 mps 763 mmHg 91%
    01:00 +21°C° 0 mm 4 mps 762 mmHg 88%
    02:00 +20°C° 0 mm 5 mps 762 mmHg 86%
    03:00 +20°C° 0 mm 6 mps 762 mmHg 83%
    04:00 +20°C° 0 mm 6 mps 762 mmHg 84%
    05:00 +19°C° 0 mm 5 mps 763 mmHg 84%
    06:00 +19°C° 0 mm 5 mps 763 mmHg 85%
    07:00 +21°C° 0 mm 5 mps 763 mmHg 77%
    08:00 +23°C° 0 mm 5 mps 764 mmHg 69%
    09:00 +26°C° 0 mm 4 mps 764 mmHg 62%
    10:00 +27°C° 0 mm 4 mps 764 mmHg 56%
    11:00 +29°C° 0 mm 3 mps 763 mmHg 50%
    12:00 +30°C° 0 mm 3 mps 762 mmHg 44%
    13:00 +30°C° 0 mm 3 mps 762 mmHg 44%
    14:00 +30°C° 0 mm 2 mps 761 mmHg 45%
    15:00 +30°C° 0 mm 2 mps 760 mmHg 45%
    16:00 +28°C° 0 mm 2 mps 760 mmHg 54%
    17:00 +26°C° 0 mm 2 mps 760 mmHg 64%
    18:00 +23°C° 0 mm 2 mps 761 mmHg 73%
    19:00 +23°C° 0 mm 2 mps 761 mmHg 77%
    20:00 +21°C° 0 mm 2 mps 762 mmHg 80%
    21:00 +20°C° 0 mm 2 mps 762 mmHg 83%
    22:00 +20°C° 0 mm 2 mps 762 mmHg 83%
    23:00 +20°C° 0 mm 2 mps 762 mmHg 83%

    28 November, Tuesday

    Time Temperature Precipitation Wind Pressure Humidity
    00:00 +20°C° 0 mm 3 mps 762 mmHg 83%
    01:00 +19°C° 0 mm 3 mps 761 mmHg 83%
    02:00 +19°C° 0 mm 3 mps 761 mmHg 83%
    03:00 +19°C° 0 mm 3 mps 761 mmHg 83%
    04:00 +18°C° 0 mm 3 mps 761 mmHg 85%
    05:00 +18°C° 0 mm 3 mps 761 mmHg 86%
    06:00 +18°C° 0 mm 3 mps 762 mmHg 88%
    07:00 +21°C° 0 mm 3 mps 762 mmHg 78%
    08:00 +25°C° 0 mm 3 mps 762 mmHg 68%
    09:00 +27°C° 0 mm 2 mps 763 mmHg 58%
    10:00 +29°C° 0 mm 2 mps 762 mmHg 52%
    11:00 +30°C° 0 mm 2 mps 762 mmHg 47%
    12:00 +32°C° 0 mm 1 mps 761 mmHg 41%
    13:00 +31°C° 0 mm 2 mps 760 mmHg 43%
    14:00 +31°C° 0 mm 2 mps 760 mmHg 44%
    15:00 +31°C° 0 mm 2 mps 759 mmHg 46%
    16:00 +28°C° 0 mm 2 mps 759 mmHg 57%
    17:00 +26°C° 0 mm 2 mps 760 mmHg 69%
    18:00 +24°C° 0 mm 2 mps 760 mmHg 80%
    19:00 +23°C° 0 mm 2 mps 760 mmHg 84%
    20:00 +22°C° 0 mm 1 mps 761 mmHg 87%
    21:00 +22°C° 0 mm 1 mps 762 mmHg 90%
    22:00 +22°C° 0 mm 1 mps 761 mmHg 90%
    23:00 +21°C° 0 mm 1 mps 761 mmHg 90%

    29 November, Wednesday

    Time Temperature Precipitation Wind Pressure Humidity
    00:00 +21°C° 0 mm 1 mps 761 mmHg 90%
    01:00 +21°C° 0 mm 1 mps 761 mmHg 89%
    02:00 +21°C° 0 mm 1 mps 761 mmHg 88%
    03:00 +21°C° 0 mm 1 mps 761 mmHg 87%
    04:00 +21°C° 0 mm 1 mps 761 mmHg 86%
    05:00 +20°C° 0 mm 1 mps 761 mmHg 86%
    06:00 +20°C° 0 mm 1 mps 762 mmHg 86%
    07:00 +23°C° 0 mm 1 mps 762 mmHg 77%
    08:00 +26°C° 0 mm 1 mps 762 mmHg 68%
    09:00 +29°C° 0 mm 1 mps 763 mmHg 59%
    10:00 +30°C° 0 mm 1 mps 762 mmHg 56%
    11:00 +31°C° 0 mm 2 mps 762 mmHg 52%
    12:00 +34°C° 0 mm 2 mps 761 mmHg 49%
    13:00 +32°C° 0 mm 2 mps 761 mmHg 50%
    14:00 +32°C° 0 mm 2 mps 760 mmHg 52%
    15:00 +33°C° 0 mm 3 mps 760 mmHg 54%
    16:00 +29°C° 0 mm 3 mps 760 mmHg 64%
    17:00 +27°C° 0 mm 3 mps 761 mmHg 74%
    18:00 +25°C° 0 mm 3 mps 761 mmHg 85%
    19:00 +25°C° 0.1 mm 3 mps 761 mmHg 87%
    20:00 +24°C° 0.1 mm 3 mps 762 mmHg 89%
    21:00 +24°C° 0.1 mm 3 mps 762 mmHg 91%
    22:00 +24°C° 0.1 mm 2 mps 762 mmHg 91%
    23:00 +24°C° 0.1 mm 2 mps 762 mmHg 92%
    Show more